When you browse on this site, cookies collect data to enhance your experience and personalize the content and advertising you see.
Visit our Privacy Policy to learn more. By continuing to use the site, you agree to this use of cookies and data.
  • In Spain
  • List of Countries
  • For 7 days
  • Water Temperature
  • Satellite Maps
  • Weather Map
  • Weather Widgets
  • user-avatar
    Login

    Hourly Weather Gvozdevicy

    Today, 25 May, Saturday

    Time Temperature Precipitation Wind Pressure Humidity
    00:00 +14°C° 0 mm 3 mps 739 mmHg 97%
    01:00 +13°C° 0 mm 3 mps 739 mmHg 98%
    02:00 +13°C° 0 mm 3 mps 739 mmHg 98%
    03:00 +14°C° 0 mm 3 mps 739 mmHg 97%
    04:00 +14°C° 0 mm 3 mps 738 mmHg 97%
    05:00 +14°C° 0 mm 3 mps 738 mmHg 96%
    06:00 +16°C° 0.3 mm 3 mps 738 mmHg 95%
    07:00 +16°C° 0.3 mm 3 mps 738 mmHg 94%
    08:00 +16°C° 0.3 mm 3 mps 738 mmHg 93%
    09:00 +17°C° 0.6 mm 3 mps 738 mmHg 90%
    10:00 +18°C° 0.6 mm 3 mps 738 mmHg 88%
    11:00 +19°C° 0.6 mm 3 mps 738 mmHg 85%
    12:00 +19°C° 0.7 mm 3 mps 738 mmHg 83%
    13:00 +20°C° 0.7 mm 2 mps 737 mmHg 81%
    14:00 +20°C° 0.7 mm 2 mps 737 mmHg 79%
    15:00 +20°C° 0.3 mm 2 mps 737 mmHg 79%
    16:00 +20°C° 0.3 mm 2 mps 737 mmHg 79%
    17:00 +21°C° 0.3 mm 2 mps 736 mmHg 79%
    18:00 +19°C° 0.6 mm 2 mps 736 mmHg 83%
    19:00 +17°C° 0.6 mm 2 mps 736 mmHg 87%
    20:00 +16°C° 0.6 mm 2 mps 736 mmHg 91%
    21:00 +15°C° 0 mm 2 mps 736 mmHg 92%
    22:00 +13°C° 0 mm 3 mps 736 mmHg 92%
    23:00 +13°C° 0 mm 3 mps 736 mmHg 93%

    Tomorrow, 26 May, Sunday

    Time Temperature Precipitation Wind Pressure Humidity
    00:00 +12°C° 0 mm 3 mps 737 mmHg 94%
    01:00 +12°C° 0 mm 2 mps 737 mmHg 95%
    02:00 +10°C° 0 mm 2 mps 737 mmHg 95%
    03:00 +10°C° 0 mm 2 mps 737 mmHg 95%
    04:00 +10°C° 0 mm 2 mps 737 mmHg 95%
    05:00 +10°C° 0 mm 3 mps 738 mmHg 95%
    06:00 +11°C° 0 mm 3 mps 738 mmHg 90%
    07:00 +12°C° 0 mm 3 mps 738 mmHg 86%
    08:00 +14°C° 0 mm 3 mps 738 mmHg 82%
    09:00 +14°C° 0 mm 4 mps 738 mmHg 76%
    10:00 +15°C° 0 mm 4 mps 738 mmHg 71%
    11:00 +17°C° 0 mm 4 mps 738 mmHg 65%
    12:00 +18°C° 0 mm 4 mps 738 mmHg 63%
    13:00 +18°C° 0 mm 4 mps 738 mmHg 62%
    14:00 +19°C° 0 mm 4 mps 738 mmHg 60%
    15:00 +19°C° 0 mm 4 mps 738 mmHg 61%
    16:00 +18°C° 0 mm 4 mps 737 mmHg 62%
    17:00 +18°C° 0 mm 4 mps 737 mmHg 64%
    18:00 +17°C° 0 mm 4 mps 737 mmHg 69%
    19:00 +14°C° 0 mm 3 mps 737 mmHg 74%
    20:00 +13°C° 0 mm 3 mps 738 mmHg 79%
    21:00 +12°C° 0 mm 3 mps 738 mmHg 83%
    22:00 +11°C° 0 mm 3 mps 738 mmHg 87%
    23:00 +10°C° 0 mm 2 mps 738 mmHg 91%

    Day after tomorrow, 27 May, Monday

    Time Temperature Precipitation Wind Pressure Humidity
    00:00 +11°C° 0 mm 3 mps 738 mmHg 89%
    01:00 +11°C° 0 mm 3 mps 738 mmHg 88%
    02:00 +11°C° 0 mm 3 mps 739 mmHg 87%
    03:00 +11°C° 0 mm 3 mps 739 mmHg 87%
    04:00 +11°C° 0 mm 3 mps 739 mmHg 88%
    05:00 +11°C° 0 mm 3 mps 739 mmHg 89%
    06:00 +12°C° 0 mm 4 mps 739 mmHg 84%
    07:00 +13°C° 0 mm 5 mps 740 mmHg 80%
    08:00 +14°C° 0 mm 5 mps 740 mmHg 76%
    09:00 +15°C° 0 mm 6 mps 740 mmHg 75%
    10:00 +16°C° 0 mm 6 mps 740 mmHg 74%
    11:00 +16°C° 0 mm 6 mps 740 mmHg 73%
    12:00 +17°C° 0.1 mm 6 mps 740 mmHg 72%
    13:00 +19°C° 0.1 mm 6 mps 740 mmHg 70%
    14:00 +20°C° 0.1 mm 6 mps 740 mmHg 69%
    15:00 +20°C° 0.3 mm 5 mps 740 mmHg 72%
    16:00 +20°C° 0.3 mm 5 mps 740 mmHg 75%
    17:00 +20°C° 0.3 mm 4 mps 740 mmHg 77%
    18:00 +19°C° 0.5 mm 4 mps 740 mmHg 81%
    19:00 +18°C° 0.5 mm 3 mps 740 mmHg 85%
    20:00 +17°C° 0.5 mm 3 mps 740 mmHg 89%
    21:00 +16°C° 0.2 mm 3 mps 740 mmHg 90%
    22:00 +14°C° 0.2 mm 3 mps 740 mmHg 92%
    23:00 +14°C° 0.2 mm 3 mps 741 mmHg 94%

    28 May, Tuesday

    Time Temperature Precipitation Wind Pressure Humidity
    00:00 +13°C° 0 mm 3 mps 741 mmHg 94%
    01:00 +13°C° 0 mm 3 mps 741 mmHg 94%
    02:00 +13°C° 0 mm 3 mps 741 mmHg 95%
    03:00 +13°C° 0 mm 3 mps 741 mmHg 95%
    04:00 +14°C° 0 mm 3 mps 741 mmHg 95%
    05:00 +14°C° 0 mm 3 mps 741 mmHg 95%
    06:00 +17°C° 0 mm 3 mps 741 mmHg 91%
    07:00 +19°C° 0 mm 4 mps 741 mmHg 87%
    08:00 +20°C° 0 mm 4 mps 741 mmHg 83%
    09:00 +21°C° 0.6 mm 4 mps 741 mmHg 78%
    10:00 +22°C° 0.6 mm 5 mps 741 mmHg 73%
    11:00 +25°C° 0.6 mm 5 mps 741 mmHg 68%
    12:00 +25°C° 0.5 mm 5 mps 741 mmHg 70%
    13:00 +25°C° 0.5 mm 5 mps 741 mmHg 72%
    14:00 +25°C° 0.5 mm 5 mps 741 mmHg 74%
    15:00 +23°C° 1.2 mm 4 mps 741 mmHg 79%
    16:00 +22°C° 1.2 mm 4 mps 741 mmHg 84%
    17:00 +21°C° 1.2 mm 4 mps 740 mmHg 89%
    18:00 +20°C° 1 mm 4 mps 740 mmHg 89%
    19:00 +20°C° 1 mm 4 mps 740 mmHg 89%
    20:00 +20°C° 1 mm 4 mps 740 mmHg 89%
    21:00 +19°C° 0 mm 4 mps 740 mmHg 89%
    22:00 +18°C° 0 mm 4 mps 740 mmHg 90%
    23:00 +17°C° 0 mm 4 mps 740 mmHg 90%

    29 May, Wednesday

    Time Temperature Precipitation Wind Pressure Humidity
    00:00 +17°C° 0 mm 4 mps 740 mmHg 91%
    01:00 +17°C° 0 mm 4 mps 740 mmHg 91%
    02:00 +17°C° 0 mm 4 mps 740 mmHg 92%
    03:00 +17°C° 0 mm 4 mps 740 mmHg 92%
    04:00 +17°C° 0 mm 4 mps 740 mmHg 93%
    05:00 +17°C° 0 mm 4 mps 740 mmHg 93%
    06:00 +17°C° 0 mm 5 mps 740 mmHg 88%
    07:00 +19°C° 0 mm 6 mps 740 mmHg 82%
    08:00 +20°C° 0 mm 6 mps 740 mmHg 77%
    09:00 +21°C° 0 mm 6 mps 740 mmHg 74%
    10:00 +22°C° 0 mm 6 mps 740 mmHg 72%
    11:00 +23°C° 0 mm 6 mps 740 mmHg 69%
    12:00 +24°C° 0 mm 6 mps 740 mmHg 69%
    13:00 +24°C° 0 mm 6 mps 740 mmHg 69%
    14:00 +26°C° 0 mm 6 mps 740 mmHg 68%
    15:00 +24°C° 1.1 mm 6 mps 740 mmHg 73%
    16:00 +25°C° 1.1 mm 5 mps 740 mmHg 78%
    17:00 +23°C° 1.1 mm 4 mps 740 mmHg 82%
    18:00 +22°C° 1.6 mm 3 mps 741 mmHg 85%
    19:00 +20°C° 1.6 mm 2 mps 741 mmHg 88%
    20:00 +20°C° 1.6 mm 1 mps 741 mmHg 90%
    21:00 +18°C° 0.9 mm 2 mps 742 mmHg 92%
    22:00 +18°C° 0.9 mm 2 mps 742 mmHg 95%
    23:00 +17°C° 0.9 mm 3 mps 742 mmHg 97%

    30 May, Thursday

    Time Temperature Precipitation Wind Pressure Humidity
    00:00 +16°C° 0.9 mm 3 mps 743 mmHg 96%
    01:00 +14°C° 0.9 mm 3 mps 743 mmHg 96%
    02:00 +14°C° 0.9 mm 3 mps 743 mmHg 96%
    03:00 +13°C° 0 mm 4 mps 744 mmHg 95%
    04:00 +13°C° 0 mm 4 mps 745 mmHg 95%
    05:00 +12°C° 0 mm 4 mps 745 mmHg 95%
    06:00 +13°C° 0 mm 4 mps 746 mmHg 88%
    07:00 +13°C° 0 mm 4 mps 746 mmHg 81%
    08:00 +13°C° 0 mm 4 mps 747 mmHg 74%
    09:00 +14°C° 0 mm 4 mps 747 mmHg 67%
    10:00 +15°C° 0 mm 4 mps 747 mmHg 61%
    11:00 +17°C° 0 mm 4 mps 748 mmHg 55%
    12:00 +18°C° 0 mm 4 mps 748 mmHg 52%
    13:00 +18°C° 0 mm 3 mps 748 mmHg 50%
    14:00 +19°C° 0 mm 3 mps 748 mmHg 47%
    15:00 +19°C° 0 mm 3 mps 748 mmHg 49%
    16:00 +19°C° 0 mm 3 mps 747 mmHg 51%
    17:00 +19°C° 0 mm 2 mps 747 mmHg 54%
    18:00 +17°C° 0 mm 2 mps 747 mmHg 58%
    19:00 +15°C° 0 mm 2 mps 747 mmHg 63%
    20:00 +13°C° 0 mm 2 mps 747 mmHg 67%
    21:00 +12°C° 0 mm 2 mps 747 mmHg 66%
    22:00 +12°C° 0 mm 2 mps 747 mmHg 65%
    23:00 +11°C° 0 mm 1 mps 747 mmHg 64%
    Show more